FW5469 Weather Reports


Display with metric or nautical units.
time (UTC)temp
F
wind
direction
speed
MPH
gust
MPH
rain 1hr
in
rain 24hr
in
rain mn
in
humidity
%
barometer
mb
20260504044557 51 202 3.0 9.0 0.00 0.00 0.00 64 1010.0
20260504043058 52 253 3.0 10.0 0.00 0.00 0.00 63 1010.0
20260504041553 52 222 4.0 8.0 0.00 0.00 0.00 63 1010.2
20260504040100 52 211 3.0 9.0 0.00 0.00 0.00 62 1010.4
20260504034608 52 206 2.0 8.0 0.00 0.00 0.00 63 1010.5
20260504033102 52 248 3.0 6.0 0.00 0.00 0.00 63 1010.7
20260504031607 52 228 3.0 9.0 0.00 0.00 0.00 63 1010.9
20260504030111 52 236 1.0 6.0 0.00 0.00 0.00 64 1010.9
20260504024558 52 0 0.0 4.0 0.00 0.00 0.00 64 1011.0
20260504023059 52 152 1.0 5.0 0.00 0.00 0.00 63 1011.3
20260504021558 52 191 2.0 7.0 0.00 0.00 0.00 63 1011.3
20260504020128 52 139 1.0 8.0 0.00 0.00 0.00 62 1011.5
20260504014604 53 168 1.0 5.0 0.00 0.00 0.00 58 1011.4
20260504013116 54 245 4.0 15.0 0.00 0.00 0.00 53 1011.0
20260504011554 55 214 1.0 5.0 0.00 0.00 0.00 50 1010.7
20260504010057 55 226 2.0 6.0 0.00 0.00 0.00 50 1010.8
20260504004628 56 281 1.0 7.0 0.00 0.00 0.00 49 1010.6
20260504003100 56 229 1.0 5.0 0.00 0.00 0.00 48 1010.6
20260504001621 57 0 2.0 10.0 0.00 0.00 0.00 46 1010.5
20260504000105 58 195 2.0 9.0 0.00 0.00 0.00 44 1010.7
20260503234605 60 145 2.0 12.0 0.00 0.00 0.00 43 1010.6
20260503233101 60 230 4.0 15.0 0.00 0.00 0.00 42 1010.7
20260503231555 61 242 3.0 12.0 0.00 0.00 0.00 44 1010.7
20260503230115 61 218 3.0 7.0 0.00 0.00 0.00 44 1010.7
20260503224604 60 222 1.0 10.0 0.00 0.00 0.00 45 1010.9
20260503223057 60 352 3.0 11.0 0.00 0.00 0.00 44 1011.0
20260503221602 61 242 3.0 12.0 0.00 0.00 0.00 44 1011.0
20260503220058 62 219 4.0 14.0 0.00 0.00 0.00 42 1010.9
20260503214600 61 203 4.0 13.0 0.00 0.00 0.00 45 1011.0
20260503213057 60 121 2.0 14.0 0.00 0.00 0.00 45 1011.1
20260503211558 61 228 2.0 8.0 0.00 0.00 0.00 44 1011.1
20260503210055 62 223 4.0 16.0 0.00 0.00 0.00 42 1011.1
20260503204557 61 198 4.0 14.0 0.00 0.00 0.00 42 1011.0
20260503203113 63 297 4.0 12.0 0.00 0.00 0.00 40 1011.2
20260503201556 63 198 2.0 10.0 0.00 0.00 0.00 42 1011.1
20260503200105 62 184 3.0 11.0 0.00 0.00 0.00 42 1011.4
20260503194557 62 207 2.0 11.0 0.00 0.00 0.00 43 1011.8
20260503193057 62 4 2.0 11.0 0.00 0.00 0.00 43 1012.1
20260503191558 61 221 6.0 16.0 0.00 0.00 0.00 41 1012.3
20260503190106 62 247 3.0 21.0 0.00 0.00 0.00 45 1012.5
20260503184602 61 235 5.0 15.0 0.00 0.00 0.00 43 1012.7
20260503183057 61 235 5.0 14.0 0.00 0.00 0.00 45 1013.1
20260503181600 60 235 3.0 15.0 0.00 0.00 0.00 45 1012.9
20260503180058 61 150 2.0 16.0 0.00 0.00 0.00 46 1013.1
20260503174554 61 224 4.0 17.0 0.00 0.00 0.00 44 1013.4
20260503173100 60 326 5.0 13.0 0.00 0.00 0.00 46 1013.5
20260503171604 60 222 2.0 16.0 0.00 0.00 0.00 50 1013.7
20260503100110 36 166 0.0 2.0 0.00 0.04 0.00 80 1014.7
20260503081600 35 0 0.0 0.0 0.00 0.11 0.00 85 1014.8
20260503071604 34 0 0.0 0.0 0.00 0.11 0.00 87 1014.8
20260503070109 34 0 0.0 0.0 0.00 0.11 0.00 88 1014.9
20260503060118 34 0 0.0 0.0 0.00 0.12 0.00 87 1015.2
20260503054608 35 0 0.0 0.0 0.00 0.12 0.00 86 1015.2